Reflectivity
-18 -1 3 9 7 -11 5 -1 -16 12 -15 -20 8 13 -6 -10 -20 -20 -20 -20 -20 -20 -20 -20 -20 -20 -7 -20 -2 18 13 18 24 -6 -20 -20 -16 -20 15 8 3 -20 -20 -20 -20
15 9 1 -19 15 5 -11 10 -16 -2 -20 13 8 1 -10 -20 -20 -20 -20 -20 27 -20 -20 -20 -20 -20 23 25 -4 27 16 -16 1 20 -13 -12 5 -20 8 16 1 -20 -20 -20 -20
7 11 11 10 -11 6 -20 7 -3 -20 16 5 -6 -19 -20 -20 -20 -20 -20 -20 -20 -20 -20 -20 -5 18 7 12 10 33 -12 -19 5 28 25 24 -5 13 9 -11 -20 -5 -18 -18 -20
15 13 12 10 -20 8 -20 4 5 -20 13 -20 -20 -20 -20 -20 -20 -20 -20 -20 -20 -20 -20 -20 -17 26 8 8 11 29 4 -16 29 35 32 31 -6 27 33 -7 -20 -20 -7 -4 31
5 14 7 7 11 -14 4 6 4 -17 -10 -1 -20 -20 -20 -20 -20 -20 -20 -20 -20 -20 -20 -20 -14 19 2 14 -8 3 -20 -20 24 38 32 6 31 -10 -7 -20 21 -20 4 32 34
-12 10 5 0 7 2 -4 8 -11 -20 -20 -8 -20 -20 -20 -20 -20 -20 -20 -20 -20 -20 -20 -20 -20 24 8 4 -7 -4 -3 -7 23 39 27 36 13 13 -1 19 -20 -20 22 16 3
11 6 12 7 8 7 3 1 -19 -20 -20 -20 -7 -20 -20 -20 -20 -20 -20 -20 -20 -20 -20 -20 2 -17 10 21 23 -20 11 -13 14 26 39 21 14 24 14 -19 17 15 -17 -20 -20
11 8 12 4 12 -17 5 -20 -20 -20 -20 -20 -20 -20 -20 -20 -20 -20 -20 -20 -20 -20 -20 -20 -20 22 21 31 15 11 -11 17 14 21 17 37 33 -3 30 -17 7 -20 -20 -20 -11
-19 11 6 10 -3 13 -18 -20 -20 -20 -20 -20 -20 -20 -20 -20 -20 -20 -20 -20 -20 -20 -20 -20 -20 7 4 28 26 18 -7 -13 11 15 19 32 25 24 -9 -9 -4 -20 -20 -20 -20
-5 1 8 11 1 11 -20 -20 -20 -20 -20 -20 -20 -20 -20 -20 -20 -20 -20 -20 -20 -20 -20 -20 -16 -11 10 15 21 -20 10 -20 -11 1 26 22 25 44 19 22 19 16 -20 -20 -20
-4 7 5 10 11 -18 -20 -20 -20 -20 -20 -20 -20 -20 -20 -20 -20 -20 -20 -20 -20 -16 -20 -20 -20 -20 10 18 26 21 -20 -20 -20 -1 2 -0 9 29 17 17 20 -20 -20 18 -20
-19 -4 -20 11 -1 -20 -20 -20 -20 -20 -20 -20 -20 -20 -20 -20 -20 -20 -20 -19 -20 -20 -20 -20 -20 -20 -17 16 22 32 -20 -20 -20 -4 14 14 20 22 28 18 10 27 25 -13 -19
-19 6 1 9 -20 -20 -20 -20 -20 -20 -20 -20 -20 -20 -20 -20 -20 -20 -2 0 -20 -20 -20 -20 -13 -20 6 16 12 27 -20 -20 1 11 18 23 28 -6 13 30 32 35 39 11 15
-13 -1 1 -3 -20 -20 -20 -20 -20 -20 -20 -20 -20 -20 -20 -20 -20 -20 -20 -20 -13 -20 -20 -20 -6 -20 -20 12 27 -17 -20 21 30 23 17 33 15 24 12 2 16 15 40 16 31
-19 -1 -2 -20 -20 -20 -20 -20 -20 -20 -20 -20 -20 -20 -20 -13 -20 -19 -20 -20 -20 -20 -18 -20 -20 -20 13 -1 19 33 14 -20 0 -20 19 8 -19 -11 14 18 24 6 18 17 -18
-20 -11 -20 -20 -20 -20 -20 -20 -20 -20 -20 -20 -20 -20 -6 -9 -20 -20 -20 -20 -20 -20 -14 16 -17 28 16 10 11 30 13 14 -20 -15 -11 -20 -19 -3 9 -9 -9 -19 18 11 -20
-20 -20 -20 -20 -20 -20 -20 -20 -20 -20 -20 -20 -16 -20 -16 -20 -15 -18 -20 -20 -20 -9 12 -15 29 19 -1 -12 -1 31 21 19 20 7 -20 -20 3 8 -2 -19 -16 -19 -12 13 -15
-20 -20 -20 -20 -20 -20 -20 -20 -20 -20 -20 -20 -20 -20 -20 -20 -18 -20 -20 -16 -9 5 20 23 25 15 -20 -20 -20 10 21 12 9 -19 4 -5 -19 -1 -7 -20 -20 -20 -13 -13 -13
-20 -20 -20 -20 -20 -20 -20 -20 -20 -20 -20 -20 -20 -20 -17 -2 -10 -20 -20 -20 -20 -19 -1 -9 8 13 -6 -12 -20 25 -10 13 -18 -20 -20 -16 -20 -20 -20 -20 -15 -20 -20 -20 -20
-20 -20 -20 -20 -20 -20 -20 -20 -20 -20 -20 -20 -20 -20 -20 -4 -20 -20 -20 -20 -20 -20 -12 -20 -12 -13 -15 -7 -20 -7 20 5 -18 -9 -20 -20 -20 -20 -20 -20 -20 -20 -20 -20 -20
-20 -20 -20 -20 -20 -20 -20 -20 -20 -20 -20 -20 -20 -16 -20 -20 0 -20 -20 -20 -20 -20 -20 -20 -20 -20 -20 -20 -2 -10 3 -20 -20 -20 -20 -20 -20 -20 -20 -20 -20 -20 -20 -20 -20
-1 -20 -20 -20 -20 -20 -20 -20 -20 -20 -20 -20 -20 -20 -20 -20 -9 -20 -20 -20 -20 -20 -20 -20 -20 1 3 -19 -14 13 -20 -20 -20 -20 -20 -20 -20 -20 -20 -20 -20 -20 -20 -20 -20
5 -20 -20 -20 -20 -20 -20 -20 -20 -20 -20 -20 -20 -20 -20 4 -1 -18 -20 -20 -20 -19 -20 -19 -10 -20 -20 -14 -20 -20 -20 -20 -20 -20 -20 -20 -20 -20 -20 -20 -20 -20 -20 -20 -20
3 -20 -20 -20 -20 -20 -20 -20 -20 -20 -20 -20 -20 -20 -20 -20 -20 -20 -20 -20 -9 -16 -20 -6 1 -11 -20 -20 -20 -20 -20 -20 -20 -20 -20 -20 -20 -20 -20 -20 -20 -20 -20 -20 -20
-2 -20 -20 -20 -20 -20 -20 -20 -20 -20 -20 -20 -20 -20 -20 -20 -20 -20 -20 -20 -20 -20 -20 -20 -20 -11 -20 -20 -20 -20 -20 -20 -20 -20 -15 -20 -20 -20 -20 -20 -20 -20 -20 -20 -20
-20 -20 -20 -20 -20 -20 -20 -20 -20 -20 -20 -20 -20 -20 -20 -20 -20 -20 -20 -20 -20 -20 -20 -20 -20 -20 -20 -20 -20 -20 -20 -20 -20 -20 6 2 -20 -20 -20 -20 -20 -20 -20 -20 -20
-15 -20 -20 -20 -20 -20 -20 -20 -20 -20 -20 -20 -20 -20 -20 -20 -20 -20 -20 -20 -17 -20 -20 -20 -20 -20 -20 -20 -20 -20 -20 -20 -20 -20 -20 -18 -20 -20 -20 -20 -20 -20 -20 -20 -20
Wind_Speed
12 9 11 11 10 11 12 10 13 12 13 14 13 13 11 10 10 2 5 9 5 7 1 5 4 6 13 5 5 3 7 19 26 16 12 7 12 8 4 7 2 0 6 8 17
11 10 12 12 10 10 13 10 12 12 14 12 12 11 9 8 3 5 9 11 11 6 2 2 4 8 6 5 6 8 10 16 15 2 4 6 9 7 7 5 2 5 8 14 18
11 10 12 12 12 11 11 12 11 12 12 12 10 9 7 4 3 2 3 5 8 8 3 3 5 7 12 5 4 5 11 10 11 17 10 6 7 7 7 4 4 14 20 14 18
11 11 11 12 12 12 12 12 9 11 10 9 7 6 5 2 3 3 4 6 8 6 3 5 6 9 5 9 4 10 4 13 7 5 6 1 8 6 1 4 4 16 21 13 17
11 12 12 12 12 12 12 12 6 9 8 8 6 7 2 2 5 4 6 7 4 3 4 3 4 7 5 6 8 5 5 6 6 9 2 5 3 3 5 9 7 2 13 16 15
12 11 12 12 13 11 13 11 6 7 5 8 6 5 0 3 2 2 2 3 4 4 4 3 4 3 2 6 7 3 2 7 5 11 3 3 1 2 5 7 12 7 7 9 14
12 10 12 12 12 13 11 8 8 8 6 8 6 3 2 8 1 2 0 2 1 1 3 3 3 3 3 3 6 4 1 5 8 14 6 3 7 5 5 7 8 9 7 4 4
12 11 9 12 13 12 14 8 8 8 7 7 4 2 5 3 1 3 3 5 3 1 0 3 3 4 1 4 7 5 2 4 4 15 9 4 4 3 2 6 7 9 9 9 4
11 10 10 11 12 13 10 10 9 7 6 6 2 2 7 3 0 3 2 1 4 1 2 3 3 2 1 2 2 3 5 4 5 13 10 10 2 5 5 8 3 8 8 9 9
9 9 9 10 11 11 11 11 4 2 4 4 4 3 4 1 2 1 1 0 2 4 1 5 3 1 2 2 1 6 2 4 4 12 10 19 8 5 7 8 4 7 8 10 9
9 7 7 10 10 9 5 3 4 2 1 4 2 3 2 3 2 3 3 2 2 3 3 3 4 3 2 5 1 6 3 2 2 5 8 13 10 7 3 5 4 9 9 12 11
9 5 7 9 8 6 1 2 2 3 2 4 6 5 3 2 3 4 4 1 1 2 1 5 3 7 5 8 3 4 7 2 6 3 3 9 5 9 11 4 3 6 13 16 12
7 4 6 7 6 2 2 3 2 3 3 2 3 0 2 4 3 4 3 1 3 3 3 5 4 9 4 5 3 3 5 7 3 6 5 5 4 3 5 7 10 10 16 19 12
7 4 5 2 1 2 2 2 2 3 6 3 2 1 3 2 2 5 2 2 2 2 3 4 5 6 5 3 4 2 5 3 16 2 2 4 3 4 2 13 12 15 21 22 15
6 5 5 5 2 2 3 4 3 4 7 5 1 2 3 3 5 1 2 1 4 3 2 6 4 3 2 3 7 2 1 8 8 4 4 1 5 3 18 15 18 20 20 16 10
6 6 5 1 1 2 5 5 4 9 3 5 2 2 3 3 3 5 2 1 3 3 3 3 3 4 3 8 3 3 3 12 8 4 3 3 3 3 12 24 23 11 10 11 8
7 7 6 2 3 3 4 4 7 7 3 6 2 2 1 2 2 2 2 4 2 5 2 2 3 2 3 5 5 3 2 5 5 4 3 8 4 8 6 13 19 14 8 8 7
9 9 2 2 4 5 4 6 9 4 3 3 3 1 2 3 0 4 3 4 3 2 4 3 5 1 2 2 3 3 2 2 4 5 3 7 4 7 4 6 9 12 10 8 9
11 1 1 2 3 3 5 7 7 5 2 2 4 6 3 2 2 2 1 2 5 5 2 4 5 4 10 5 3 2 2 2 2 4 6 3 6 8 6 5 5 11 8 8 9
4 3 2 4 4 4 6 4 3 3 1 1 2 3 2 3 3 2 2 4 3 8 4 5 4 6 4 3 3 3 2 2 4 4 3 3 3 3 2 2 3 5 8 8 8
4 4 2 3 3 5 5 5 3 1 2 2 2 1 2 2 2 1 1 4 6 2 5 4 1 1 1 1 3 2 2 1 2 4 5 4 5 4 8 3 4 3 1 3 4
4 3 1 3 4 1 3 6 3 1 4 3 3 1 2 3 2 2 1 2 7 3 3 1 2 2 4 3 2 3 3 2 5 3 2 4 3 3 6 4 6 5 5 5 4
5 3 1 4 4 1 2 3 3 2 2 2 2 2 1 1 1 2 2 5 7 3 2 1 2 3 4 2 3 4 3 1 4 4 2 5 5 3 5 6 6 6 4 4 6
4 4 2 2 1 8 5 3 2 1 2 3 3 4 1 3 3 3 2 3 6 3 5 1 2 4 5 4 3 2 3 2 4 4 1 2 4 4 5 6 6 4 4 4 4
2 3 5 4 2 5 4 5 4 4 1 2 3 3 2 2 2 3 3 5 3 7 3 2 1 0 4 4 2 2 2 5 2 4 5 0 2 3 3 1 3 3 2 2 3
6 5 3 2 5 7 3 4 5 3 3 2 5 1 3 2 1 1 1 3 1 7 5 4 3 4 2 3 5 1 3 5 0 3 10 3 5 3 3 4 5 1 1 3 3
1 2 6 2 4 5 5 6 6 7 3 4 5 2 4 4 1 2 3 5 2 2 4 3 3 3 4 4 2 5 1 5 4 3 5 6 5 2 2 4 4 4 3 3 6
Wind_Direction
315 319 317 321 327 325 313 321 317 332 328 312 308 307 312 308 305 281 237 227 214 276 329 311 343 339 299 228 190 263 239 242 212 224 222 188 211 153 144 160 149 176 161 142 131
313 319 317 321 324 321 319 325 320 333 318 321 314 309 309 312 271 234 238 256 278 304 354 222 296 325 288 251 181 221 237 212 236 323 229 307 209 162 127 172 151 113 105 125 135
314 319 315 318 320 319 313 318 325 326 335 330 321 313 313 313 261 238 14 278 282 284 209 251 174 265 277 218 205 229 235 276 241 245 315 322 337 332 152 202 188 149 138 150 132
314 313 315 321 317 317 318 316 328 323 335 335 328 325 324 308 238 230 296 309 294 283 279 246 223 213 231 245 195 240 245 239 319 224 250 61 320 117 95 329 294 152 151 146 145
315 314 311 314 314 316 317 319 334 331 333 330 328 343 0 262 253 223 40 11 340 293 280 259 229 203 206 254 258 221 252 279 216 300 11 320 151 172 183 349 342 275 157 166 162
315 316 312 313 315 312 315 319 332 320 321 322 348 336 322 261 192 159 52 9 24 33 4 359 267 207 254 214 289 280 312 248 223 196 287 287 49 164 133 14 15 6 169 176 170
308 308 311 314 310 312 310 326 324 309 299 307 339 330 312 246 31 223 255 221 225 66 332 345 303 141 83 247 288 244 282 257 207 174 179 53 272 202 51 43 29 10 349 212 191
306 312 318 313 312 309 316 316 316 299 286 294 309 32 250 256 261 274 288 281 218 237 69 76 55 85 143 305 268 181 18 206 142 156 139 150 275 136 61 76 21 359 12 328 244
305 308 312 309 309 308 314 314 309 287 257 288 339 162 278 297 331 226 233 26 319 232 23 96 56 72 136 338 307 58 187 226 161 177 127 156 29 280 151 79 310 352 358 339 284
300 309 314 308 302 312 316 310 260 4 291 240 256 333 278 292 124 187 274 135 282 310 285 41 5 156 168 153 270 169 160 250 156 178 153 174 212 301 113 109 18 330 340 324 279
291 305 312 309 303 328 352 7 36 3 30 184 311 256 3 332 244 236 201 193 263 348 304 21 56 228 203 209 126 284 170 156 63 175 143 174 162 151 57 87 25 327 319 294 266
284 305 300 294 307 322 69 87 111 197 11 239 253 274 280 17 300 308 129 82 287 261 126 1 327 286 253 139 140 276 152 134 323 183 102 168 129 150 145 135 227 274 283 263 252
276 281 286 288 319 349 168 158 106 119 93 323 186 228 10 0 316 314 175 153 266 273 211 185 250 325 244 148 89 294 182 145 203 102 18 134 100 187 98 203 184 187 254 262 244
261 256 273 303 348 202 138 181 103 99 77 300 236 83 35 13 281 317 1 113 312 282 313 239 291 274 251 107 183 245 192 146 222 206 130 256 136 176 214 233 204 205 226 249 232
240 236 239 182 301 101 173 145 108 58 57 279 12 39 41 36 312 51 326 81 224 267 24 268 346 342 139 186 193 71 242 189 177 117 150 341 113 250 186 219 215 218 210 229 201
212 216 206 161 202 170 127 84 57 48 270 331 137 343 342 59 320 298 333 314 283 344 331 247 276 248 210 141 123 3 190 100 73 71 3 200 107 242 178 205 215 210 211 216 211
198 200 171 172 196 136 109 60 46 97 334 302 342 104 221 353 324 298 290 313 66 9 351 248 208 96 67 95 18 59 137 124 156 174 210 157 112 251 263 230 215 204 222 217 211
180 175 229 119 141 120 75 56 77 241 208 284 358 128 300 23 94 337 359 359 40 121 287 24 96 48 329 80 127 38 358 123 126 136 137 140 217 258 285 243 205 200 210 210 204
158 136 151 162 133 86 93 58 182 195 256 293 9 63 324 51 22 359 237 241 216 186 325 17 62 43 44 34 22 98 11 349 114 55 84 196 290 312 3 8 181 173 183 224 230
146 145 197 155 123 81 79 154 149 156 9 109 92 345 341 357 51 32 74 271 301 196 198 351 79 10 160 172 52 90 73 57 349 125 90 275 276 259 328 92 92 133 196 229 227
109 139 187 135 88 59 118 199 149 29 73 82 122 308 347 343 0 347 14 306 359 333 54 3 94 335 13 244 182 32 4 269 5 126 147 148 260 233 271 226 117 34 233 131 149
142 118 121 97 64 50 129 155 149 37 16 92 103 162 213 0 31 104 311 246 340 341 44 8 124 50 281 297 207 159 237 160 118 300 66 139 289 324 344 101 103 68 44 20 51
134 120 2 91 126 359 193 115 110 117 41 79 65 199 24 274 141 127 327 269 330 108 183 302 33 101 350 347 113 256 260 141 82 69 13 104 256 2 8 47 53 91 50 29 58
117 104 346 48 219 131 131 144 143 73 105 69 70 60 328 40 37 147 315 290 331 65 168 221 137 156 180 211 149 237 220 176 104 87 161 227 321 7 342 29 20 13 77 70 81
90 205 177 163 262 130 126 143 139 145 86 59 79 75 82 27 47 27 12 319 352 14 36 11 71 292 262 238 183 212 189 171 104 171 83 224 224 4 32 45 341 301 20 24 74
135 135 37 110 101 105 147 173 154 132 147 105 111 56 110 134 233 179 329 32 257 322 352 329 318 12 313 10 176 146 165 181 43 68 133 119 293 306 9 63 18 314 162 269 265
160 58 103 169 118 109 194 167 178 141 13 126 133 92 137 175 247 286 307 304 282 320 322 356 357 18 318 343 32 25 186 180 152 143 143 169 223 316 320 28 61 42 30 251 248